Branson, MO

9:17 AM CST on January 17, 2018 (GMT -0600)
Branson

Weather History for KBBG - August, 2012

Change the Weather History Date:

Wednesday, August 8, 2012

  Actual Average (KHRO) Record (KHRO)
Temperature  
Mean Temperature 80 °F -  
Max Temperature 93 °F 88 °F 109 °F (1934)
Min Temperature 66 °F 66 °F 51 °F (1989)
Cooling Degree Days 14    
Growing Degree Days 30 (Base 50)    
Moisture  
Dew Point 61 °F    
Average Humidity 62    
Maximum Humidity 94    
Minimum Humidity 42    
Precipitation  
Precipitation 0.00 in - - ()
Sea Level Pressure  
Sea Level Pressure 29.99 in    
Wind  
Wind Speed 6 mph (SSE)    
Max Wind Speed 31 mph    
Max Gust Speed 55 mph    
Visibility 10 miles    
Events Rain , Thunderstorm    
Averages and records for this station are not official NWS values.
T = Trace of Precipitation, MM = Missing Value Source: NWS Daily Summary

Daily Weather History Graph

Daily Weather History Graph

Search for Another Location

Airport or City:

Trip Planner

Search our weather history database for the weather conditions in past years. The results will help you decide how hot, cold, wet, or windy it might be!

Date:

Astronomy

Aug. 08, 2012 Rise Set
Actual Time 6:25 AM CDT 8:11 PM CDT
Civil Twilight 5:57 AM CDT 8:38 PM CDT
Nautical Twilight 5:23 AM CDT 9:12 PM CDT
Astronomical Twilight 4:47 AM CDT 9:48 PM CDT
Moon 11:39 PM CDT (8/8) 12:57 PM CDT (8/8)
Length of Visible Light 14h 41m
Length of Day
13h 45m
Waning Gibbous, 60% of the Moon is Illuminated
Aug 8
Waning Gibbous
Aug 9
Last Quarter
Aug 17
New
Aug 24
First Quarter
Aug 31
Full

Hourly Weather History & Observations

Time (CDT) Temp. Heat Index Dew Point Humidity Pressure Visibility Wind Dir Wind Speed Gust Speed Precip Events Conditions
12:15 AM 80.6 °F 80.5 °F 55.4 °F 42% 30.01 in 10.0 mi SE 6.9 mph - N/A   Clear
12:35 AM 78.8 °F - 55.4 °F 44% 30.02 in 10.0 mi SSE 5.8 mph - N/A   Clear
12:55 AM 78.8 °F - 55.4 °F 44% 30.01 in 10.0 mi South 4.6 mph - N/A   Clear
1:15 AM 77.0 °F - 55.4 °F 47% 30.01 in 10.0 mi South 4.6 mph - N/A   Clear
1:35 AM 77.0 °F - 55.4 °F 47% 30.01 in 10.0 mi South 5.8 mph - N/A   Clear
1:55 AM 77.0 °F - 55.4 °F 47% 30.01 in 10.0 mi South 4.6 mph - N/A   Clear
2:15 AM 77.0 °F - 55.4 °F 47% 30.01 in 10.0 mi South 4.6 mph - N/A   Clear
2:35 AM 77.0 °F - 55.4 °F 47% 30.00 in 10.0 mi South 5.8 mph - N/A   Clear
2:55 AM 77.0 °F - 55.4 °F 47% 30.00 in 10.0 mi South 5.8 mph - N/A   Clear
3:15 AM 77.0 °F - 55.4 °F 47% 30.00 in 10.0 mi South 5.8 mph - N/A   Clear
3:35 AM 77.0 °F - 55.4 °F 47% 30.00 in 10.0 mi South 4.6 mph - N/A   Clear
3:55 AM 75.2 °F - 57.2 °F 53% 30.00 in 10.0 mi SSE 3.5 mph - N/A   Clear
4:15 AM 73.4 °F - 59.0 °F 61% 30.00 in 10.0 mi SE 4.6 mph - N/A   Clear
4:35 AM 73.4 °F - 57.2 °F 57% 30.01 in 10.0 mi SSE 4.6 mph - N/A   Clear
4:55 AM 73.4 °F - 57.2 °F 57% 30.01 in 10.0 mi SSE 3.5 mph - N/A   Clear
5:15 AM 75.2 °F - 57.2 °F 53% 30.01 in 10.0 mi South 3.5 mph - N/A   Clear
5:35 AM 71.6 °F - 60.8 °F 69% 30.01 in 10.0 mi SE 3.5 mph - N/A   Clear
5:55 AM 71.6 °F - 59.0 °F 64% 30.01 in 10.0 mi SSE 4.6 mph - N/A   Clear
6:15 AM 71.6 °F - 59.0 °F 64% 30.01 in 10.0 mi SE 4.6 mph - N/A   Clear
6:35 AM 71.6 °F - 60.8 °F 69% 30.01 in 10.0 mi SE 4.6 mph - N/A   Clear
6:54 AM 71.6 °F - 59.0 °F 64% 30.01 in 10.0 mi SSE 5.8 mph - N/A   Scattered Clouds
7:52 AM 78.8 °F - 62.6 °F 57% 30.02 in 10.0 mi SSE 5.8 mph - N/A   Mostly Cloudy
8:53 AM 82.4 °F 84.6 °F 66.2 °F 58% 30.02 in 10.0 mi SSE 5.8 mph - N/A   Mostly Cloudy
9:51 AM 86.0 °F 89.4 °F 68.0 °F 55% 30.02 in 10.0 mi South 5.8 mph - N/A   Mostly Cloudy
10:50 AM 87.8 °F 93.8 °F 71.6 °F 58% 30.02 in 10.0 mi SSW 9.2 mph - N/A   Mostly Cloudy
11:48 AM 91.4 °F 95.4 °F 68.0 °F 46% 30.02 in 10.0 mi SSW 5.8 mph - N/A   Mostly Cloudy
12:47 PM 93.2 °F 97.7 °F 68.0 °F 44% 29.99 in 10.0 mi SW 4.6 mph - N/A   Mostly Cloudy
1:48 PM 93.2 °F 97.7 °F 68.0 °F 44% 29.98 in 10.0 mi SSE 5.8 mph - N/A   Mostly Cloudy
2:46 PM 82.4 °F 86.3 °F 69.8 °F 66% 30.01 in 7.0 mi South 31.1 mph 55.2 mph N/A Rain Light Rain
3:05 PM 69.8 °F - 62.6 °F 78% 29.98 in 4.0 mi SSE 27.6 mph 38.0 mph N/A Rain , Thunderstorm Thunderstorms and Rain
3:55 PM 71.6 °F - 64.4 °F 78% 29.99 in 10.0 mi NNE 11.5 mph - N/A   Mostly Cloudy
4:50 PM 80.6 °F 82.3 °F 64.4 °F 58% 29.98 in 10.0 mi Calm Calm - N/A   Mostly Cloudy
5:50 PM 82.4 °F 83.4 °F 62.6 °F 51% 29.97 in 10.0 mi SE 4.6 mph - N/A   Mostly Cloudy
6:50 PM 80.6 °F 83.2 °F 68.0 °F 65% 29.97 in 10.0 mi North 11.5 mph - N/A   Mostly Cloudy
7:50 PM 71.6 °F - 64.4 °F 78% 30.00 in 10.0 mi South 9.2 mph - N/A   Mostly Cloudy
8:45 PM 69.8 °F - 64.4 °F 83% 29.91 in 10.0 mi Calm Calm - N/A   Mostly Cloudy
9:15 PM 71.6 °F - 60.8 °F 69% 29.92 in 10.0 mi Calm Calm - N/A   Clear
9:35 PM 69.8 °F - 64.4 °F 83% 29.93 in 10.0 mi Calm Calm - N/A   Clear
9:55 PM 69.8 °F - 62.6 °F 78% 29.94 in 10.0 mi WSW 3.5 mph - N/A   Clear
10:15 PM 68.0 °F - 64.4 °F 88% 29.96 in 10.0 mi NNE 5.8 mph - N/A   Clear
10:35 PM 68.0 °F - 64.4 °F 88% 29.96 in 10.0 mi Calm Calm - N/A   Clear
10:55 PM 66.2 °F - 64.4 °F 94% 29.96 in 9.0 mi Calm Calm - N/A   Clear
11:15 PM 68.0 °F - 66.2 °F 94% 29.97 in 10.0 mi Calm Calm - N/A   Clear
11:55 PM 68.0 °F - 64.4 °F 88% 30.05 in 10.0 mi North 10.4 mph 24.2 mph N/A   Clear